Fort Stanton, NM

7:02 PM MST on February 20, 2017 (GMT -0700)
Sierra Blanca Regional

Weather History for KSRR - April, 2013

Change the Weather History Date:

Monday, April 1, 2013

  Actual Average Record
Temperature  
Mean Temperature 54 °F -  
Max Temperature 68 °F 58 °F 75 °F (2011)
Min Temperature 39 °F 35 °F 23 °F (2005)
Degree Days  
Heating Degree Days 12    
Growing Degree Days 4 (Base 50)    
Moisture  
Dew Point 14 °F    
Average Humidity 22    
Maximum Humidity 57    
Minimum Humidity 9    
Precipitation  
Precipitation 0.00 in - - ()
Sea Level Pressure  
Sea Level Pressure 30.11 in    
Wind  
Wind Speed 9 mph (SW)    
Max Wind Speed 26 mph    
Max Gust Speed 33 mph    
Visibility 10 miles    
Events      
Averages and records for this station are not official NWS values.
T = Trace of Precipitation, MM = Missing Value Source: NWS Daily Summary

Daily Weather History Graph

Daily Weather History Graph

Search for Another Location

Airport or City:

Trip Planner

Search our weather history database for the weather conditions in past years. The results will help you decide how hot, cold, wet, or windy it might be!

Date:

Astronomy

Apr. 01, 2013 Rise Set
Actual Time 6:49 AM MDT 7:22 PM MDT
Civil Twilight 6:24 AM MDT 7:47 PM MDT
Nautical Twilight 5:54 AM MDT 8:17 PM MDT
Astronomical Twilight 5:25 AM MDT 8:47 PM MDT
Moon 12:20 AM MDT (4/1) 10:51 AM MDT (4/1)
Length of Visible Light 13h 23m
Length of Day
12h 33m
Waning Gibbous, 66% of the Moon is Illuminated
Apr 1
Waning Gibbous
Apr 2
Last Quarter
Apr 10
New
Apr 18
First Quarter
Apr 25
Full

Hourly Weather History & Observations

Time (MDT) Temp. Windchill Dew Point Humidity Pressure Visibility Wind Dir Wind Speed Gust Speed Precip Events Conditions
12:15 AM 48.2 °F - 32.0 °F 54% 30.16 in 10.0 mi SE 3.5 mph - N/A   Clear
12:35 AM 46.4 °F - 32.0 °F 57% 30.15 in 10.0 mi Calm Calm - N/A   Clear
1:15 AM 46.4 °F 43.5 °F 30.2 °F 53% 30.15 in 10.0 mi SE 5.8 mph - N/A   Clear
1:35 AM 46.4 °F - 30.2 °F 53% 30.15 in 10.0 mi Calm Calm - N/A   Clear
1:55 AM 48.2 °F - 28.4 °F 46% 30.15 in 10.0 mi Calm Calm - N/A   Clear
2:15 AM 46.4 °F 45.2 °F 24.8 °F 43% 30.15 in 10.0 mi South 3.5 mph - N/A   Clear
2:35 AM 46.4 °F 41.9 °F 19.4 °F 34% 30.14 in 10.0 mi SW 9.2 mph - N/A   Clear
3:15 AM 50.0 °F - 17.6 °F 28% 30.14 in 10.0 mi SW 10.4 mph - N/A   Clear
3:35 AM 48.2 °F - 19.4 °F 32% 30.13 in 10.0 mi SW 9.2 mph - N/A   Clear
4:15 AM 46.4 °F 44.3 °F 23.0 °F 40% 30.14 in 10.0 mi SW 4.6 mph - N/A   Clear
4:35 AM 48.2 °F - 17.6 °F 30% 30.13 in 10.0 mi SW 9.2 mph - N/A   Clear
4:55 AM 48.2 °F - 17.6 °F 30% 30.13 in 10.0 mi SW 10.4 mph - N/A   Clear
5:15 AM 39.2 °F 34.2 °F 24.8 °F 56% 30.14 in 10.0 mi WNW 6.9 mph - N/A   Clear
5:35 AM 42.8 °F 39.3 °F 19.4 °F 39% 30.14 in 10.0 mi NW 5.8 mph - N/A   Clear
6:15 AM 41.0 °F - 24.8 °F 53% 30.15 in 10.0 mi Calm Calm - N/A   Clear
6:35 AM 44.6 °F 43.1 °F 21.2 °F 39% 30.15 in 10.0 mi SW 3.5 mph - N/A   Clear
7:15 AM 46.4 °F - 19.4 °F 34% 30.16 in 10.0 mi Calm Calm - N/A   Clear
7:35 AM 48.2 °F - 17.6 °F 30% 30.16 in 10.0 mi WSW 3.5 mph - N/A   Clear
7:55 AM 50.0 °F - 19.4 °F 30% 30.17 in 10.0 mi SW 4.6 mph - N/A   Clear
8:15 AM 50.0 °F - 21.2 °F 32% 30.17 in 10.0 mi NNE 3.5 mph - N/A   Clear
8:35 AM 50.0 °F - 19.4 °F 30% 30.17 in 10.0 mi SW 4.6 mph - N/A   Clear
8:55 AM 57.2 °F - 19.4 °F 23% 30.17 in 10.0 mi SW 11.5 mph - N/A   Clear
9:15 AM 59.0 °F - 19.4 °F 22% 30.17 in 10.0 mi SW 15.0 mph - N/A   Clear
9:35 AM 59.0 °F - 19.4 °F 22% 30.17 in 10.0 mi SW 5.8 mph - N/A   Clear
10:15 AM 62.6 °F - 19.4 °F 19% 30.17 in 10.0 mi SW 11.5 mph 17.3 mph N/A   Clear
10:35 AM 64.4 °F - 15.8 °F 15% 30.16 in 10.0 mi WNW 10.4 mph 19.6 mph N/A   Clear
11:15 AM 66.2 °F - 12.2 °F 12% 30.16 in 10.0 mi WSW 16.1 mph 21.9 mph N/A   Clear
11:35 AM 66.2 °F - 8.6 °F 11% 30.16 in 10.0 mi SW 13.8 mph 21.9 mph N/A   Clear
11:55 AM 66.2 °F - 8.6 °F 11% 30.15 in 10.0 mi SW 15.0 mph 25.3 mph N/A   Clear
12:15 PM 66.2 °F - 10.4 °F 11% 30.15 in 10.0 mi WSW 12.7 mph 23.0 mph N/A   Clear
12:35 PM 66.2 °F - 10.4 °F 11% 30.14 in 10.0 mi West 15.0 mph 20.7 mph N/A   Clear
12:55 PM 68.0 °F - 8.6 °F 10% 30.13 in 10.0 mi SW 16.1 mph 23.0 mph N/A   Clear
1:15 PM 68.0 °F - 14.0 °F 12% 30.12 in 10.0 mi SW 9.2 mph 24.2 mph N/A   Clear
1:35 PM 68.0 °F - 14.0 °F 12% 30.11 in 10.0 mi SSW 20.7 mph 27.6 mph N/A   Clear
2:15 PM 68.0 °F - 10.4 °F 11% 30.10 in 10.0 mi SW 21.9 mph 28.8 mph N/A   Clear
2:35 PM 68.0 °F - 8.6 °F 10% 30.09 in 10.0 mi WSW 17.3 mph 29.9 mph N/A   Clear
2:55 PM 68.0 °F - 6.8 °F 9% 30.07 in 10.0 mi SW 26.5 mph 32.2 mph N/A   Clear
3:15 PM 68.0 °F - 6.8 °F 9% 30.07 in 10.0 mi WSW 20.7 mph 25.3 mph N/A   Clear
3:35 PM 68.0 °F - 6.8 °F 9% 30.07 in 10.0 mi WSW 18.4 mph 31.1 mph N/A   Clear
3:55 PM 68.0 °F - 6.8 °F 9% 30.07 in 10.0 mi SW 21.9 mph 33.4 mph N/A   Clear
4:15 PM 68.0 °F - 8.6 °F 10% 30.06 in 10.0 mi SW 16.1 mph 31.1 mph N/A   Clear
4:35 PM 68.0 °F - 8.6 °F 10% 30.05 in 10.0 mi SW 24.2 mph 32.2 mph N/A   Clear
5:15 PM 68.0 °F - 10.4 °F 11% 30.04 in 10.0 mi SW 18.4 mph 29.9 mph N/A   Clear
5:35 PM 66.2 °F - 6.8 °F 10% 30.03 in 10.0 mi SW 24.2 mph 27.6 mph N/A   Clear
5:55 PM 66.2 °F - 8.6 °F 11% 30.04 in 10.0 mi SW 21.9 mph 28.8 mph N/A   Partly Cloudy
6:15 PM 64.4 °F - 8.6 °F 11% 30.04 in 10.0 mi WSW 18.4 mph 28.8 mph N/A   Clear
6:35 PM 64.4 °F - 10.4 °F 12% 30.04 in 10.0 mi SW 20.7 mph 27.6 mph N/A   Clear
6:55 PM 62.6 °F - 8.6 °F 12% 30.04 in 10.0 mi SW 20.7 mph 24.2 mph N/A   Clear
7:15 PM 62.6 °F - 8.6 °F 12% 30.04 in 10.0 mi SW 16.1 mph - N/A   Clear
7:35 PM 59.0 °F - 8.6 °F 14% 30.05 in 10.0 mi SW 11.5 mph - N/A   Clear
7:55 PM 59.0 °F - 8.6 °F 14% 30.05 in 10.0 mi SSW 12.7 mph - N/A   Clear
8:15 PM 59.0 °F - 8.6 °F 14% 30.05 in 10.0 mi SSW 10.4 mph - N/A   Clear
8:35 PM 57.2 °F - 8.6 °F 14% 30.05 in 10.0 mi SSW 11.5 mph - N/A   Clear
8:55 PM 57.2 °F - 8.6 °F 14% 30.06 in 10.0 mi SSW 11.5 mph - N/A   Clear
9:15 PM 55.4 °F - 8.6 °F 15% 30.06 in 10.0 mi SSW 11.5 mph - N/A   Clear
9:35 PM 57.2 °F - 8.6 °F 14% 30.06 in 10.0 mi SW 12.7 mph - N/A   Clear
9:55 PM 57.2 °F - 8.6 °F 14% 30.07 in 10.0 mi SW 10.4 mph - N/A   Clear
10:15 PM 55.4 °F - 8.6 °F 15% 30.08 in 10.0 mi Calm Calm - N/A   Clear
10:35 PM 51.8 °F - 8.6 °F 18% 30.07 in 10.0 mi SSE 5.8 mph - N/A   Clear
10:55 PM 53.6 °F - 8.6 °F 16% 30.07 in 10.0 mi SSW 5.8 mph - N/A   Clear
11:15 PM 51.8 °F - 8.6 °F 18% 30.07 in 10.0 mi ESE 3.5 mph - N/A   Clear
11:35 PM 55.4 °F - 8.6 °F 15% 30.07 in 10.0 mi ESE 5.8 mph - N/A   Clear
11:55 PM 51.8 °F - 8.6 °F 18% 30.06 in 10.0 mi SSE 4.6 mph - N/A   Clear